DW4407 Weather Reports


Display with metric or nautical units.
time (UTC)temp
F
wind
direction
speed
MPH
gust
MPH
rain 1hr
in
rain 24hr
in
rain mn
in
humidity
%
barometer
mb
20260509200012 34 127 0.0 0.0 0.00 0.00 0.00 91 1029.1
20260509194509 34 127 0.0 0.0 0.00 0.00 0.00 91 1028.9
20260509193007 35 127 0.0 0.0 0.00 0.00 0.00 91 1028.7
20260509191510 35 127 0.0 0.0 0.00 0.00 0.00 91 1028.5
20260509190011 35 127 0.0 0.0 0.00 0.00 0.00 91 1028.3
20260509184502 35 127 0.0 0.0 0.00 0.00 0.00 91 1028.1
20260509183104 35 127 0.0 0.0 0.00 0.00 0.00 91 1028.0
20260509181602 35 127 0.0 0.0 0.00 0.00 0.00 91 1027.8
20260509180100 35 127 0.0 0.0 0.00 0.00 0.00 91 1027.7
20260509174554 35 127 0.0 0.0 0.00 0.00 0.00 91 1027.6
20260509173053 35 127 0.0 0.0 0.00 0.00 0.00 91 1027.5
20260509171553 35 127 0.0 0.0 0.00 0.00 0.00 91 1027.4
20260509170052 36 127 0.0 0.0 0.00 0.00 0.00 91 1027.4
20260509164549 36 127 0.0 0.0 0.00 0.00 0.00 91 1027.5
20260509163048 36 127 0.0 0.0 0.00 0.00 0.00 91 1027.5
20260509161547 36 127 0.0 0.0 0.00 0.00 0.00 91 1027.4
20260509160046 36 127 0.0 0.0 0.00 0.00 0.00 91 1027.3
20260509154546 36 127 0.0 0.0 0.00 0.00 0.00 91 1027.4
20260509153057 37 127 0.0 0.0 0.00 0.00 0.00 91 1027.5
20260509151545 37 127 0.0 0.0 0.00 0.00 0.00 91 1027.5
20260509150040 38 127 0.0 0.0 0.00 0.00 0.00 91 1027.5
20260509144536 39 127 0.0 0.0 0.00 0.00 0.00 91 1027.4
20260509143035 39 127 0.0 0.0 0.00 0.00 0.00 91 1027.3
20260509141533 40 127 0.0 0.0 0.00 0.00 0.00 91 1027.4
20260509140039 39 127 0.0 0.0 0.00 0.00 0.00 91 1027.4
20260509134531 39 127 0.0 0.0 0.00 0.00 0.00 91 1027.4
20260509133030 40 127 0.0 0.0 0.00 0.00 0.00 91 1027.5
20260509131533 38 127 0.0 0.0 0.00 0.00 0.00 91 1027.4
20260509130024 38 127 0.0 0.0 0.00 0.00 0.00 90 1027.4
20260509124523 39 127 0.0 0.0 0.00 0.00 0.00 90 1027.4
20260509123022 39 127 0.0 0.0 0.00 0.00 0.00 90 1027.5
20260509121525 40 127 0.0 0.0 0.00 0.00 0.00 90 1027.5
20260509120025 40 127 0.0 0.0 0.00 0.00 0.00 89 1027.5
20260509114520 41 127 0.0 0.0 0.00 0.00 0.00 89 1027.4
20260509113018 41 127 0.0 0.0 0.00 0.00 0.00 89 1027.2
20260509111517 42 127 0.0 0.0 0.00 0.00 0.00 88 1027.0
20260509110016 43 127 0.0 0.0 0.00 0.00 0.00 88 1026.9
20260509104514 43 127 0.0 0.0 0.00 0.00 0.00 89 1026.7
20260509103013 43 127 0.0 0.0 0.00 0.00 0.00 89 1026.6
20260509101514 43 127 0.0 0.0 0.00 0.00 0.00 89 1026.5
20260509100011 43 127 0.0 0.0 0.00 0.00 0.00 89 1026.3
20260509094511 43 127 0.0 0.0 0.00 0.00 0.00 88 1026.4
20260509093008 43 127 0.0 0.0 0.00 0.00 0.00 87 1026.2
20260509091508 44 127 0.0 0.0 0.00 0.00 0.00 86 1026.1
20260509090006 45 127 0.0 0.0 0.00 0.00 0.00 85 1025.9
20260509084509 46 127 0.0 0.0 0.00 0.00 0.00 83 1025.7
20260509083005 47 127 0.0 0.0 0.00 0.00 0.00 82 1025.5
20260509081504 48 127 0.0 0.0 0.00 0.00 0.00 80 1025.1
20260509080003 49 127 0.0 0.0 0.00 0.00 0.00 78 1025.1
20260509074503 51 127 0.0 0.0 0.00 0.00 0.00 75 1024.7
20260509073011 53 127 0.0 0.0 0.00 0.00 0.00 73 1024.5
20260509071502 55 127 0.0 0.0 0.00 0.00 0.00 69 1024.1
20260509070002 57 127 0.0 0.0 0.00 0.00 0.00 64 1023.9
20260509064502 58 117 0.0 0.0 0.00 0.00 0.00 60 1023.8
20260509063000 60 169 0.0 0.0 0.00 0.00 0.00 56 1023.6
20260509061603 62 169 0.0 0.0 0.00 0.00 0.00 52 1023.6
20260509060106 66 165 0.0 0.0 0.00 0.00 0.00 46 1023.6
20260509054613 67 268 0.0 0.0 0.00 0.00 0.00 45 1023.5
20260509053104 69 182 0.0 0.0 0.00 0.00 0.00 45 1023.4
20260509051558 68 165 0.0 0.0 0.00 0.00 0.00 46 1023.2
20260509050059 69 165 0.0 0.0 0.00 0.00 0.00 45 1023.3
20260509044557 70 219 0.0 0.0 0.00 0.00 0.00 43 1023.2
20260509043054 69 154 0.0 0.0 0.00 0.00 0.00 44 1023.2
20260509041556 69 163 0.0 0.0 0.00 0.00 0.00 45 1023.2
20260509040121 68 145 0.0 0.0 0.00 0.00 0.00 44 1023.1
20260509034556 68 185 0.0 0.0 0.00 0.00 0.00 44 1023.3
20260509033051 67 152 0.0 0.0 0.00 0.00 0.00 45 1023.3
20260509031549 68 258 0.0 0.0 0.00 0.00 0.00 43 1023.4
20260509030048 67 173 0.0 0.0 0.00 0.00 0.00 46 1023.4
20260509024547 66 273 0.0 0.0 0.00 0.00 0.00 43 1023.7
20260509023044 65 250 0.0 0.0 0.00 0.00 0.00 45 1023.8
20260509021545 65 211 0.0 0.0 0.00 0.00 0.00 46 1024.1
20260509020041 65 180 0.0 0.0 0.00 0.00 0.00 48 1024.5
20260509014536 64 212 0.0 0.0 0.00 0.00 0.00 49 1024.7
20260509013035 63 170 0.0 0.0 0.00 0.00 0.00 52 1024.9
20260509011529 62 123 0.0 0.0 0.00 0.00 0.00 54 1024.9
20260509010034 61 169 0.0 0.0 0.00 0.00 0.00 56 1025.0
20260509004521 60 169 0.0 0.0 0.00 0.00 0.00 58 1025.1
20260509003021 58 223 0.0 0.0 0.00 0.00 0.00 62 1025.2
20260509001513 56 148 0.0 0.0 0.00 0.00 0.00 65 1025.3
20260509000008 54 178 0.0 0.0 0.00 0.00 0.00 71 1025.4
20260508234504 52 156 0.0 0.0 0.00 0.00 0.00 75 1025.5
20260508233100 49 156 0.0 0.0 0.00 0.00 0.00 79 1025.7
20260508231556 48 247 0.0 0.0 0.00 0.00 0.00 83 1025.7
20260508230053 46 277 0.0 0.0 0.00 0.00 0.00 89 1025.7
20260508224552 44 179 0.0 0.0 0.00 0.00 0.00 90 1025.6
20260508223054 42 232 0.0 0.0 0.00 0.00 0.00 91 1025.6
20260508221545 38 223 0.0 0.0 0.00 0.00 0.00 91 1025.4
20260508220043 36 223 0.0 0.0 0.00 0.00 0.00 91 1025.2
20260508214551 35 223 0.0 0.0 0.00 0.00 0.00 91 1025.1
20260508213039 35 223 0.0 0.0 0.00 0.00 0.00 91 1025.0
20260508211537 35 223 0.0 0.0 0.00 0.00 0.00 91 1025.0
20260508210034 36 223 0.0 0.0 0.00 0.00 0.00 91 1024.9
20260508204538 36 223 0.0 0.0 0.00 0.00 0.00 91 1024.8
20260508203030 36 223 0.0 0.0 0.00 0.00 0.00 91 1024.5
20260508201526 36 223 0.0 0.0 0.00 0.00 0.00 91 1024.4